Waterville, ME

3:56 AM EST on November 18, 2019 (GMT -0500)
Waterville Lafleur

Weather History for KWVL - October, 2019

Change the Weather History Date:

Monday, October 21, 2019

  Actual Average Record
Temperature  
Mean Temperature 52 °F -  
Max Temperature 63 °F 58 °F 75 °F (1965)
Min Temperature 39 °F 35 °F 17 °F (1972)
Degree Days  
Heating Degree Days 13    
Growing Degree Days 2 (Base 50)    
Moisture  
Dew Point 43 °F    
Average Humidity 88    
Maximum Humidity 100    
Minimum Humidity 48    
Precipitation  
Precipitation 0.00 in - - ()
Sea Level Pressure  
Sea Level Pressure 30.17 in    
Wind  
Wind Speed 1 mph (North)    
Max Wind Speed 6 mph    
Max Gust Speed -    
Visibility 7 miles    
Events Fog , Rain    
Averages and records for this station are not official NWS values.
T = Trace of Precipitation, MM = Missing Value Source: NWS Daily Summary

Daily Weather History Graph

Daily Weather History Graph

Search for Another Location

Airport or City:

Astronomy

Oct. 21, 2019 Rise Set
Actual Time 7:01 AM EDT 5:44 PM EDT
Civil Twilight 6:31 AM EDT 6:14 PM EDT
Nautical Twilight 5:57 AM EDT 6:48 PM EDT
Astronomical Twilight 5:24 AM EDT 7:21 PM EDT
Moon 11:48 PM EDT (10/21) 2:25 PM EDT (10/21)
Length of Visible Light 11h 42m
Length of Day
10h 43m
Waning Gibbous, 48% of the Moon is Illuminated
Oct 21
Waning Gibbous
Oct 27
New
Nov 4
First Quarter
Nov 12
Full
Nov 19
Last Quarter

Hourly Weather History & Observations

Time (EDT) Temp. Windchill Dew Point Humidity Pressure Visibility Wind Dir Wind Speed Gust Speed Precip Events Conditions
12:56 AM 45.0 °F - 43.0 °F 93% 30.13 in 10.0 mi Calm Calm - N/A   Overcast
1:56 AM 45.0 °F - 43.0 °F 93% 30.14 in 10.0 mi Calm Calm - N/A   Overcast
2:56 AM 46.0 °F - 44.1 °F 93% 30.15 in 10.0 mi Calm Calm - N/A   Clear
3:56 AM 46.0 °F - 44.1 °F 93% 30.15 in 10.0 mi Calm Calm - N/A   Clear
4:56 AM 43.0 °F - 42.1 °F 97% 30.16 in 10.0 mi Calm Calm - N/A   Clear
5:54 AM 42.8 °F - 42.8 °F 100% 30.08 in 2.0 mi Calm Calm - N/A   Partly Cloudy
5:56 AM 43.0 °F - 42.1 °F 97% 30.17 in 9.0 mi Calm Calm - N/A   Partly Cloudy
6:56 AM 41.0 °F - 41.0 °F 100% 30.18 in 5.0 mi Calm Calm - N/A   Clear
7:20 AM 41.0 °F 39.0 °F 41.0 °F 100% 30.10 in 1.0 mi NNE 3.5 mph - N/A   Clear
7:28 AM 41.0 °F 39.0 °F 41.0 °F 100% 30.10 in 2.0 mi North 3.5 mph - N/A   Clear
7:34 AM 41.0 °F 39.0 °F 41.0 °F 100% 30.11 in 3.0 mi NE 3.5 mph - N/A   Partly Cloudy
7:51 AM 42.8 °F - 42.8 °F 100% 30.11 in 5.0 mi Calm Calm - N/A   Mostly Cloudy
7:56 AM 42.1 °F - 42.1 °F 100% 30.20 in 7.0 mi Calm Calm - N/A   Mostly Cloudy
8:29 AM 44.6 °F - 44.6 °F 100% 30.12 in 1.2 mi Calm Calm - N/A   Overcast
8:31 AM 44.6 °F - 44.6 °F 100% 30.12 in 0.8 mi Calm Calm - N/A   Overcast
8:36 AM 44.6 °F - 44.6 °F 100% 30.13 in 0.2 mi Calm Calm - N/A Fog Fog
8:56 AM 45.0 °F - 45.0 °F 100% 30.22 in 0.2 mi Calm Calm - 0.00 in Fog , Rain Light Rain
9:27 AM 46.4 °F - 46.4 °F 100% 30.12 in 0.8 mi Calm Calm - 0.00 in   Overcast
9:29 AM 46.4 °F - 46.4 °F 100% 30.12 in 1.2 mi Calm Calm - 0.00 in   Overcast
9:38 AM 46.4 °F - 46.4 °F 100% 30.13 in 3.0 mi Calm Calm - 0.00 in   Overcast
9:56 AM 46.9 °F - 46.0 °F 97% 30.20 in 5.0 mi Calm Calm - 0.00 in   Overcast
10:33 AM 48.2 °F - 46.4 °F 93% 30.12 in 10.0 mi Calm Calm - N/A   Scattered Clouds
10:56 AM 51.1 °F - 46.9 °F 86% 30.20 in 3.0 mi Calm Calm - N/A   Clear
11:56 AM 55.9 °F - 43.0 °F 62% 30.19 in 10.0 mi Calm Calm - N/A   Clear
12:56 PM 60.1 °F - 43.0 °F 53% 30.17 in 10.0 mi Variable 3.5 mph - N/A   Clear
1:56 PM 61.0 °F - 43.0 °F 52% 30.17 in 10.0 mi North 5.8 mph - N/A   Clear
2:56 PM 62.1 °F - 43.0 °F 50% 30.16 in 9.0 mi Variable 4.6 mph - N/A   Clear
3:56 PM 63.0 °F - 43.0 °F 48% 30.18 in 10.0 mi Calm Calm - N/A   Clear
4:56 PM 61.0 °F - 44.1 °F 54% 30.18 in 10.0 mi Calm Calm - N/A   Clear
5:56 PM 55.0 °F - 44.1 °F 67% 30.19 in 10.0 mi Calm Calm - N/A   Clear
6:56 PM 48.9 °F - 43.0 °F 80% 30.22 in 10.0 mi Calm Calm - N/A   Clear
7:56 PM 48.0 °F - 43.0 °F 83% 30.25 in 10.0 mi North 3.5 mph - N/A   Clear
8:56 PM 46.9 °F - 43.0 °F 86% 30.25 in 10.0 mi Calm Calm - N/A   Clear
9:56 PM 44.1 °F 42.5 °F 42.1 °F 93% 30.25 in 10.0 mi North 3.5 mph - N/A   Clear
10:56 PM 45.0 °F - 43.0 °F 93% 30.26 in 10.0 mi Calm Calm - N/A   Clear
11:56 PM 39.9 °F 37.8 °F 39.0 °F 97% 30.25 in 10.0 mi North 3.5 mph - N/A   Clear